When you browse on this site, cookies collect data to enhance your experience and personalize the content and advertising you see.
Visit our Privacy Policy to learn more. By continuing to use the site, you agree to this use of cookies and data.
  • în România
  • Lista ţărilor
  • Pe 7 zile
  • Temperatura apei
  • Meteo pe hartă
  • Widget-uri
  • user-avatar
    Intrare

    Meteo pe oră la Andora

    Astăzi, 18 Noiembrie, Luni

    Timp Temperatura Precipitaţii Vânt Presiune Umiditate
    00:00 -2°C° 0 mm 1 m/s 614 mmHg 92%
    01:00 -2°C° 0.2 mm 1 m/s 614 mmHg 93%
    02:00 -2°C° 0.2 mm 1 m/s 614 mmHg 93%
    03:00 -2°C° 0.2 mm 1 m/s 614 mmHg 94%
    04:00 -2°C° 0.3 mm 1 m/s 614 mmHg 94%
    05:00 -4°C° 0.3 mm 2 m/s 615 mmHg 94%
    06:00 -4°C° 0.3 mm 2 m/s 615 mmHg 94%
    07:00 -3°C° 0.4 mm 2 m/s 616 mmHg 91%
    08:00 -2°C° 0.4 mm 2 m/s 616 mmHg 87%
    09:00 -1°C° 0.4 mm 2 m/s 617 mmHg 84%
    10:00 -1°C° 0.2 mm 2 m/s 617 mmHg 82%
    11:00 -1°C° 0.2 mm 2 m/s 618 mmHg 80%
    12:00 -1°C° 0.2 mm 2 m/s 618 mmHg 78%
    13:00 -1°C° 0.1 mm 2 m/s 618 mmHg 79%
    14:00 -2°C° 0.1 mm 2 m/s 617 mmHg 81%
    15:00 -2°C° 0.1 mm 2 m/s 617 mmHg 82%
    16:00 -4°C° 0 mm 2 m/s 617 mmHg 85%
    17:00 -6°C° 0 mm 3 m/s 617 mmHg 88%
    18:00 -8°C° 0 mm 3 m/s 616 mmHg 92%
    19:00 -8°C° 0.1 mm 3 m/s 616 mmHg 91%
    20:00 -8°C° 0.1 mm 3 m/s 617 mmHg 90%
    21:00 -8°C° 0.1 mm 3 m/s 617 mmHg 89%
    22:00 -8°C° 0 mm 3 m/s 617 mmHg 88%
    23:00 -7°C° 0 mm 2 m/s 617 mmHg 86%

    Mâine, 19 Noiembrie, Marţi

    Timp Temperatura Precipitaţii Vânt Presiune Umiditate
    00:00 -8°C° 0 mm 2 m/s 617 mmHg 85%
    01:00 -8°C° 0 mm 2 m/s 617 mmHg 81%
    02:00 -8°C° 0 mm 2 m/s 617 mmHg 78%
    03:00 -8°C° 0 mm 2 m/s 616 mmHg 74%
    04:00 -8°C° 0 mm 2 m/s 616 mmHg 72%
    05:00 -8°C° 0 mm 2 m/s 616 mmHg 71%
    06:00 -8°C° 0 mm 2 m/s 617 mmHg 69%
    07:00 -6°C° 0 mm 2 m/s 617 mmHg 67%
    08:00 -2°C° 0 mm 1 m/s 618 mmHg 65%
    09:00 -1°C° 0 mm 1 m/s 619 mmHg 63%
    10:00 +1°C° 0 mm 1 m/s 620 mmHg 60%
    11:00 +2°C° 0 mm 1 m/s 620 mmHg 58%
    12:00 +3°C° 0 mm 1 m/s 620 mmHg 56%
    13:00 +3°C° 0 mm 1 m/s 620 mmHg 60%
    14:00 +3°C° 0 mm 1 m/s 620 mmHg 64%
    15:00 +2°C° 0 mm 1 m/s 619 mmHg 68%
    16:00 0°C° 0 mm 1 m/s 618 mmHg 72%
    17:00 -2°C° 0 mm 1 m/s 618 mmHg 75%
    18:00 -4°C° 0 mm 1 m/s 617 mmHg 78%
    19:00 -4°C° 0 mm 1 m/s 617 mmHg 77%
    20:00 -4°C° 0 mm 1 m/s 617 mmHg 76%
    21:00 -4°C° 0 mm 1 m/s 618 mmHg 75%
    22:00 -4°C° 0 mm 1 m/s 617 mmHg 74%
    23:00 -4°C° 0 mm 1 m/s 617 mmHg 72%

    Poimâine, 20 Noiembrie, Miercuri

    Timp Temperatura Precipitaţii Vânt Presiune Umiditate
    00:00 -4°C° 0 mm 1 m/s 617 mmHg 71%
    01:00 -4°C° 0 mm 1 m/s 617 mmHg 70%
    02:00 -4°C° 0 mm 1 m/s 616 mmHg 70%
    03:00 -4°C° 0 mm 1 m/s 616 mmHg 70%
    04:00 -4°C° 0 mm 1 m/s 616 mmHg 69%
    05:00 -4°C° 0 mm 1 m/s 616 mmHg 68%
    06:00 -4°C° 0 mm 1 m/s 616 mmHg 67%
    07:00 -3°C° 0 mm 1 m/s 616 mmHg 65%
    08:00 -2°C° 0 mm 1 m/s 617 mmHg 64%
    09:00 -1°C° 0 mm 1 m/s 618 mmHg 62%
    10:00 -2°C° 0 mm 2 m/s 618 mmHg 62%
    11:00 -1°C° 0 mm 2 m/s 618 mmHg 63%
    12:00 0°C° 0 mm 3 m/s 618 mmHg 64%
    13:00 +1°C° 0 mm 2 m/s 617 mmHg 67%
    14:00 +1°C° 0 mm 2 m/s 617 mmHg 70%
    15:00 -1°C° 0 mm 2 m/s 616 mmHg 72%
    16:00 -2°C° 0 mm 2 m/s 616 mmHg 77%
    17:00 -4°C° 0 mm 2 m/s 615 mmHg 82%
    18:00 -5°C° 0 mm 2 m/s 615 mmHg 87%
    19:00 -5°C° 0 mm 2 m/s 615 mmHg 88%
    20:00 -5°C° 0 mm 2 m/s 615 mmHg 89%
    21:00 -5°C° 0 mm 2 m/s 615 mmHg 90%
    22:00 -5°C° 0 mm 2 m/s 615 mmHg 91%
    23:00 -4°C° 0 mm 2 m/s 615 mmHg 92%

    21 Noiembrie, Joi

    Timp Temperatura Precipitaţii Vânt Presiune Umiditate
    00:00 -4°C° 0 mm 2 m/s 615 mmHg 93%
    01:00 -4°C° 0 mm 2 m/s 615 mmHg 94%
    02:00 -4°C° 0 mm 2 m/s 615 mmHg 94%
    03:00 -4°C° 0 mm 2 m/s 615 mmHg 95%
    04:00 -4°C° 0 mm 2 m/s 615 mmHg 95%
    05:00 -4°C° 0 mm 2 m/s 615 mmHg 95%
    06:00 -4°C° 0 mm 2 m/s 615 mmHg 95%
    07:00 -3°C° 0 mm 2 m/s 615 mmHg 92%
    08:00 0°C° 0 mm 1 m/s 616 mmHg 89%
    09:00 +1°C° 0 mm 1 m/s 617 mmHg 86%
    10:00 +1°C° 0 mm 2 m/s 617 mmHg 83%
    11:00 +2°C° 0 mm 2 m/s 617 mmHg 80%
    12:00 +3°C° 0 mm 2 m/s 617 mmHg 77%
    13:00 +3°C° 0 mm 2 m/s 617 mmHg 79%
    14:00 +2°C° 0 mm 2 m/s 616 mmHg 82%
    15:00 +2°C° 0 mm 2 m/s 616 mmHg 85%
    16:00 +1°C° 0 mm 2 m/s 616 mmHg 87%
    17:00 -1°C° 0 mm 2 m/s 616 mmHg 90%
    18:00 0°C° 0 mm 1 m/s 615 mmHg 92%
    19:00 -2°C° 0.1 mm 2 m/s 616 mmHg 92%
    20:00 -2°C° 0.1 mm 2 m/s 616 mmHg 93%
    21:00 -2°C° 0.1 mm 2 m/s 616 mmHg 93%
    22:00 -1°C° 0.2 mm 2 m/s 616 mmHg 94%
    23:00 -1°C° 0.2 mm 2 m/s 616 mmHg 95%

    22 Noiembrie, Vineri

    Timp Temperatura Precipitaţii Vânt Presiune Umiditate
    00:00 -1°C° 0.2 mm 2 m/s 616 mmHg 96%
    01:00 -1°C° 0.6 mm 2 m/s 615 mmHg 97%
    02:00 +1°C° 0.6 mm 2 m/s 615 mmHg 97%
    03:00 +1°C° 0.6 mm 2 m/s 614 mmHg 97%
    04:00 +1°C° 1.2 mm 2 m/s 614 mmHg 97%
    05:00 +1°C° 1.2 mm 2 m/s 614 mmHg 98%
    06:00 +1°C° 1.2 mm 2 m/s 614 mmHg 98%
    07:00 +1°C° 2 mm 2 m/s 614 mmHg 98%
    08:00 +1°C° 2 mm 2 m/s 614 mmHg 98%
    09:00 +1°C° 2 mm 2 m/s 614 mmHg 98%
    10:00 +1°C° 1 mm 2 m/s 614 mmHg 98%
    11:00 +1°C° 1 mm 2 m/s 614 mmHg 98%
    12:00 +2°C° 1 mm 2 m/s 614 mmHg 97%
    13:00 +3°C° 0.4 mm 1 m/s 613 mmHg 98%
    14:00 +3°C° 0.4 mm 1 m/s 613 mmHg 98%
    15:00 +3°C° 0.4 mm 1 m/s 613 mmHg 98%
    16:00 +2°C° 0.1 mm 1 m/s 613 mmHg 98%
    17:00 +2°C° 0.1 mm 1 m/s 613 mmHg 98%
    18:00 +1°C° 0.1 mm 0 m/s 613 mmHg 98%
    19:00 +1°C° 0 mm 0 m/s 613 mmHg 98%
    20:00 +1°C° 0 mm 1 m/s 613 mmHg 98%
    21:00 +1°C° 0 mm 1 m/s 613 mmHg 97%
    22:00 +1°C° 0.1 mm 1 m/s 613 mmHg 97%
    23:00 0°C° 0.1 mm 1 m/s 613 mmHg 96%

    23 Noiembrie, Sâmbătă

    Timp Temperatura Precipitaţii Vânt Presiune Umiditate
    00:00 0°C° 0.1 mm 1 m/s 613 mmHg 95%
    01:00 -2°C° 0.7 mm 2 m/s 613 mmHg 95%
    02:00 -2°C° 0.7 mm 2 m/s 613 mmHg 95%
    03:00 -3°C° 0.7 mm 2 m/s 613 mmHg 95%
    04:00 -3°C° 0.3 mm 2 m/s 613 mmHg 95%
    05:00 -3°C° 0.3 mm 2 m/s 614 mmHg 94%
    06:00 -4°C° 0.3 mm 2 m/s 614 mmHg 94%
    07:00 -3°C° 0.2 mm 2 m/s 615 mmHg 93%
    08:00 -2°C° 0.2 mm 3 m/s 616 mmHg 91%
    09:00 -1°C° 0.2 mm 3 m/s 616 mmHg 90%
    10:00 -1°C° 0.1 mm 3 m/s 617 mmHg 87%
    11:00 0°C° 0.1 mm 3 m/s 617 mmHg 85%
    12:00 0°C° 0.1 mm 3 m/s 617 mmHg 82%
    13:00 0°C° 0.1 mm 3 m/s 617 mmHg 83%
    14:00 -1°C° 0.1 mm 3 m/s 617 mmHg 84%
    15:00 -1°C° 0.1 mm 3 m/s 618 mmHg 85%
    16:00 -2°C° 0.1 mm 3 m/s 618 mmHg 87%
    17:00 -4°C° 0.1 mm 3 m/s 618 mmHg 89%
    18:00 -5°C° 0.1 mm 3 m/s 619 mmHg 92%
    19:00 -5°C° 0 mm 3 m/s 619 mmHg 91%
    20:00 -5°C° 0 mm 3 m/s 620 mmHg 91%
    21:00 -5°C° 0 mm 3 m/s 620 mmHg 91%
    22:00 -6°C° 0 mm 3 m/s 620 mmHg 89%
    23:00 -5°C° 0 mm 2 m/s 620 mmHg 86%
    Arată mai mult